FDX390 KIND-KMCO

Flight info

Callsign FDX390
Flight time 1h 39m
Altitude 41000
Route DAWNN1 IIU Q79 THRSR ZJAYX GRNCH5
Aircraft B77L/H-SDE1E2E3FGHIJ2J3J4J5M1RWXY/LB1D1

Departure

Time 2026-05-04 22:52
Airport Indianapolis International Airport (KIND)

Arrival

Time 2026-05-05 00:31
Airport Orlando International Airport (KMCO)
Time Latitude Longitude Altitude Speed Heading
2026-05-04 22:36 39.71008 -86.28619 786 ft 0 kts 134°
2026-05-04 22:43 39.71018 -86.28631 786 ft 4 kts 134°
2026-05-04 22:44 39.71035 -86.28653 786 ft 4 kts 128°
2026-05-04 22:44 39.71043 -86.28679 786 ft 4 kts 63°
2026-05-04 22:44 39.71026 -86.28704 786 ft 3 kts 43°
2026-05-04 22:44 39.71023 -86.28707 786 ft 0 kts 44°
2026-05-04 22:47 39.71030 -86.28699 786 ft 5 kts 44°
2026-05-04 22:47 39.71059 -86.28663 786 ft 6 kts 44°
2026-05-04 22:48 39.71098 -86.28626 786 ft 9 kts 19°
2026-05-04 22:48 39.71172 -86.28674 787 ft 15 kts 315°
2026-05-04 22:48 39.71258 -86.28677 789 ft 14 kts 42°
2026-05-04 22:48 39.71326 -86.28585 788 ft 14 kts 45°
2026-05-04 22:49 39.71396 -86.28495 788 ft 15 kts 44°
2026-05-04 22:49 39.71477 -86.28395 788 ft 18 kts 43°
2026-05-04 22:49 39.71572 -86.28269 787 ft 21 kts 51°
2026-05-04 22:49 39.71645 -86.28088 787 ft 23 kts 58°
2026-05-04 22:50 39.71757 -86.27937 787 ft 23 kts 44°
2026-05-04 22:50 39.71840 -86.27834 787 ft 11 kts 34°
2026-05-04 22:50 39.71895 -86.27863 789 ft 6 kts 316°
2026-05-04 22:50 39.71937 -86.27919 791 ft 16 kts 314°
2026-05-04 22:51 39.71941 -86.27998 792 ft 9 kts 228°
2026-05-04 22:51 39.71779 -86.28204 791 ft 70 kts 224°
2026-05-04 22:51 39.71247 -86.28879 793 ft 141 kts 224°
2026-05-04 22:51 39.70487 -86.29870 1208 ft 157 kts 225°
2026-05-04 22:52 39.69720 -86.30848 2136 ft 145 kts 225°
2026-05-04 22:52 39.69027 -86.31757 3082 ft 135 kts 225°
2026-05-04 22:52 39.68328 -86.32682 3581 ft 158 kts 225°
2026-05-04 22:52 39.67487 -86.33786 3809 ft 188 kts 221°
2026-05-04 22:53 39.66182 -86.34457 4063 ft 226 kts 187°
2026-05-04 22:53 39.64542 -86.34263 4649 ft 243 kts 180°
2026-05-04 22:53 39.62858 -86.34018 5549 ft 250 kts 181°
2026-05-04 22:53 39.61078 -86.33782 6581 ft 256 kts 182°
2026-05-04 22:54 39.59315 -86.33549 7460 ft 262 kts 182°
2026-05-04 22:54 39.57482 -86.33331 8361 ft 267 kts 182°
2026-05-04 22:54 39.55613 -86.33119 9301 ft 272 kts 183°
2026-05-04 22:54 39.53702 -86.32905 10215 ft 279 kts 183°
2026-05-04 22:55 39.51699 -86.32691 10853 ft 303 kts 182°
2026-05-04 22:55 39.49480 -86.32464 11073 ft 337 kts 182°
2026-05-04 22:55 39.47032 -86.32213 11427 ft 364 kts 181°
2026-05-04 22:55 39.44466 -86.31939 12305 ft 375 kts 181°
2026-05-04 22:56 39.41846 -86.31653 13334 ft 382 kts 180°
2026-05-04 22:56 39.39172 -86.31339 14299 ft 389 kts 178°
2026-05-04 22:56 39.36476 -86.30649 15205 ft 401 kts 169°
2026-05-04 22:56 39.33800 -86.29471 16076 ft 413 kts 162°
2026-05-04 22:57 39.31156 -86.27915 16954 ft 420 kts 159°
2026-05-04 22:57 39.28484 -86.26311 17824 ft 427 kts 159°
2026-05-04 22:57 39.25770 -86.24684 18648 ft 433 kts 159°
2026-05-04 22:57 39.23022 -86.23045 19459 ft 437 kts 159°
2026-05-04 22:58 39.20245 -86.21395 20275 ft 442 kts 160°
2026-05-04 22:58 39.17433 -86.19732 21062 ft 447 kts 160°
2026-05-04 22:58 39.14585 -86.18055 21818 ft 453 kts 160°
2026-05-04 22:58 39.11697 -86.16356 22546 ft 459 kts 160°
2026-05-04 22:59 39.08770 -86.14637 23277 ft 465 kts 160°
2026-05-04 22:59 39.05813 -86.12903 23912 ft 470 kts 160°
2026-05-04 22:59 39.02819 -86.11149 24512 ft 476 kts 160°
2026-05-04 22:59 38.99790 -86.09375 25109 ft 481 kts 160°
2026-05-04 23:00 38.96735 -86.07588 25751 ft 484 kts 160°
2026-05-04 23:00 38.93658 -86.05790 26354 ft 489 kts 160°
2026-05-04 23:00 38.90543 -86.03971 26892 ft 495 kts 160°
2026-05-04 23:00 38.87392 -86.02133 27450 ft 500 kts 160°
2026-05-04 23:01 38.84208 -86.00291 28032 ft 504 kts 160°
2026-05-04 23:01 38.80996 -85.98453 28572 ft 508 kts 160°
2026-05-04 23:01 38.77759 -85.96597 29101 ft 512 kts 160°
2026-05-04 23:01 38.74538 -85.94743 29566 ft 516 kts 160°
2026-05-04 23:02 38.71212 -85.92817 30040 ft 519 kts 160°
2026-05-04 23:02 38.67969 -85.90932 30649 ft 517 kts 159°
2026-05-04 23:02 38.64710 -85.89034 31363 ft 512 kts 159°
2026-05-04 23:02 38.61478 -85.87153 32060 ft 508 kts 159°
2026-05-04 23:03 38.58266 -85.85287 32698 ft 506 kts 159°
2026-05-04 23:03 38.55063 -85.83431 33178 ft 507 kts 160°
2026-05-04 23:03 38.51849 -85.81573 33639 ft 507 kts 159°
2026-05-04 23:03 38.48634 -85.79716 34114 ft 506 kts 159°
2026-05-04 23:04 38.45428 -85.77866 34597 ft 504 kts 159°
2026-05-04 23:04 38.43271 -85.76622 34923 ft 503 kts 159°
2026-05-04 23:04 38.40127 -85.74809 35359 ft 502 kts 159°
2026-05-04 23:04 38.36901 -85.72952 35788 ft 502 kts 160°
2026-05-04 23:05 38.33768 -85.71149 36209 ft 501 kts 160°
2026-05-04 23:05 38.30596 -85.69326 36614 ft 500 kts 160°
2026-05-04 23:05 38.27427 -85.67507 37062 ft 499 kts 160°
2026-05-04 23:05 38.24264 -85.65692 37468 ft 498 kts 160°
2026-05-04 23:06 38.21104 -85.63881 37870 ft 497 kts 160°
2026-05-04 23:06 38.17959 -85.62079 38271 ft 496 kts 160°
2026-05-04 23:06 38.14810 -85.60277 38614 ft 496 kts 160°
2026-05-04 23:06 38.11646 -85.58537 38763 ft 497 kts 163°
2026-05-04 23:07 38.05003 -85.56126 38840 ft 497 kts 173°
2026-05-04 23:07 37.98169 -85.54362 38854 ft 504 kts 173°
2026-05-04 23:08 37.91282 -85.52567 38870 ft 506 kts 173°
2026-05-04 23:08 37.84388 -85.50725 38842 ft 507 kts 172°
2026-05-04 23:09 37.77483 -85.48866 38857 ft 508 kts 172°
2026-05-04 23:09 37.70566 -85.47008 38860 ft 508 kts 172°
2026-05-04 23:10 37.63646 -85.45155 38860 ft 509 kts 172°
2026-05-04 23:10 37.56720 -85.43306 38861 ft 509 kts 173°
2026-05-04 23:11 37.49794 -85.41460 38882 ft 509 kts 173°
2026-05-04 23:11 37.42867 -85.39618 38865 ft 509 kts 173°
2026-05-04 23:12 37.35942 -85.37778 38860 ft 508 kts 173°
2026-05-04 23:12 37.29022 -85.35944 38879 ft 508 kts 173°
2026-05-04 23:13 37.22101 -85.34114 38890 ft 508 kts 173°
2026-05-04 23:13 37.15177 -85.32286 38887 ft 509 kts 173°
2026-05-04 23:14 37.08246 -85.30459 38885 ft 509 kts 173°
2026-05-04 23:14 37.01360 -85.28648 38897 ft 509 kts 173°
2026-05-04 23:15 36.94421 -85.26826 38916 ft 510 kts 173°
2026-05-04 23:15 36.87470 -85.25004 38901 ft 510 kts 173°
2026-05-04 23:16 36.80522 -85.23186 38920 ft 510 kts 173°
2026-05-04 23:16 36.73566 -85.21371 38926 ft 511 kts 173°
2026-05-04 23:17 36.66602 -85.19555 38922 ft 512 kts 173°
2026-05-04 23:17 36.59635 -85.17742 38913 ft 512 kts 173°
2026-05-04 23:18 36.52650 -85.15932 38931 ft 513 kts 173°
2026-05-04 23:18 36.45665 -85.14124 38931 ft 513 kts 173°
2026-05-04 23:19 36.38680 -85.12317 38921 ft 513 kts 173°
2026-05-04 23:19 36.31692 -85.10518 38938 ft 513 kts 173°
2026-05-04 23:20 36.24698 -85.08715 38959 ft 513 kts 174°
2026-05-04 23:20 36.17703 -85.06915 38973 ft 513 kts 174°
2026-05-04 23:21 36.10704 -85.05119 38973 ft 514 kts 174°
2026-05-04 23:21 36.03699 -85.03326 38998 ft 514 kts 174°
2026-05-04 23:22 35.96691 -85.01533 39002 ft 515 kts 174°
2026-05-04 23:22 35.89674 -84.99743 39000 ft 515 kts 174°
2026-05-04 23:23 35.82653 -84.97954 38965 ft 515 kts 174°
2026-05-04 23:23 35.75631 -84.96168 38962 ft 515 kts 174°
2026-05-04 23:24 35.68618 -84.94387 38963 ft 515 kts 174°
2026-05-04 23:24 35.61596 -84.92608 38937 ft 515 kts 174°
2026-05-04 23:25 35.54578 -84.90831 38968 ft 515 kts 174°
2026-05-04 23:25 35.47600 -84.89063 38970 ft 516 kts 174°
2026-05-04 23:26 35.40556 -84.87281 38958 ft 517 kts 174°
2026-05-04 23:26 35.33507 -84.85500 38964 ft 517 kts 174°
2026-05-04 23:27 35.26449 -84.83721 38977 ft 518 kts 174°
2026-05-04 23:27 35.19378 -84.81941 38973 ft 519 kts 174°
2026-05-04 23:28 35.12295 -84.80162 38954 ft 520 kts 174°
2026-05-04 23:28 35.05208 -84.78385 38976 ft 520 kts 174°
2026-05-04 23:29 34.98112 -84.76609 38995 ft 521 kts 174°
2026-05-04 23:29 34.91002 -84.74833 39002 ft 522 kts 174°
2026-05-04 23:30 34.83886 -84.73057 39000 ft 522 kts 174°
2026-05-04 23:30 34.76765 -84.71285 39017 ft 523 kts 174°
2026-05-04 23:31 34.69626 -84.69510 39010 ft 524 kts 174°
2026-05-04 23:31 34.62485 -84.67737 39011 ft 524 kts 174°
2026-05-04 23:32 34.55354 -84.65959 38997 ft 523 kts 174°
2026-05-04 23:32 34.48232 -84.64095 39013 ft 523 kts 173°
2026-05-04 23:33 34.41122 -84.62217 39016 ft 523 kts 173°
2026-05-04 23:33 34.34012 -84.60355 39008 ft 523 kts 173°
2026-05-04 23:34 34.26906 -84.58505 39032 ft 522 kts 173°
2026-05-04 23:34 34.19796 -84.56657 39025 ft 523 kts 173°
2026-05-04 23:35 34.12719 -84.54819 39032 ft 523 kts 173°
2026-05-04 23:35 34.05595 -84.52973 39028 ft 524 kts 174°
2026-05-04 23:36 33.98452 -84.51213 39006 ft 523 kts 175°
2026-05-04 23:36 33.91281 -84.49681 39010 ft 524 kts 176°
2026-05-04 23:37 33.84098 -84.48146 39028 ft 525 kts 176°
2026-05-04 23:37 33.76904 -84.46569 39023 ft 526 kts 176°
2026-05-04 23:38 33.69698 -84.44986 39044 ft 527 kts 176°
2026-05-04 23:38 33.62526 -84.42899 39036 ft 536 kts 167°
2026-05-04 23:39 33.55623 -84.39331 39023 ft 544 kts 158°
2026-05-04 23:39 33.48875 -84.35207 39065 ft 546 kts 158°
2026-05-04 23:40 33.42099 -84.31086 39075 ft 547 kts 158°
2026-05-04 23:40 33.35285 -84.27008 39085 ft 547 kts 159°
2026-05-04 23:41 33.28472 -84.22963 39067 ft 546 kts 159°
2026-05-04 23:41 33.21669 -84.18933 39048 ft 545 kts 159°
2026-05-04 23:42 33.14890 -84.14919 39038 ft 543 kts 159°
2026-05-04 23:42 33.08125 -84.10918 39031 ft 542 kts 159°
2026-05-04 23:43 33.01375 -84.06934 39027 ft 541 kts 159°
2026-05-04 23:43 32.94626 -84.02957 39057 ft 541 kts 159°
2026-05-04 23:44 32.87869 -83.98983 39050 ft 542 kts 159°
2026-05-04 23:44 32.81102 -83.95011 39043 ft 543 kts 159°
2026-05-04 23:45 32.74359 -83.91058 39037 ft 545 kts 159°
2026-05-04 23:45 32.67564 -83.87080 39043 ft 545 kts 159°
2026-05-04 23:46 32.60768 -83.83109 39059 ft 545 kts 159°
2026-05-04 23:46 32.53964 -83.79141 39075 ft 545 kts 159°
2026-05-04 23:47 32.47151 -83.75174 39074 ft 545 kts 159°
2026-05-04 23:47 32.40338 -83.71213 39061 ft 546 kts 160°
2026-05-04 23:48 32.33517 -83.67255 39044 ft 546 kts 160°
2026-05-04 23:48 32.26688 -83.63300 39047 ft 547 kts 160°
2026-05-04 23:49 32.19856 -83.59349 39039 ft 548 kts 160°
2026-05-04 23:49 32.13012 -83.55395 39039 ft 548 kts 160°
2026-05-04 23:50 32.06162 -83.51448 39057 ft 548 kts 160°
2026-05-04 23:50 31.99311 -83.47506 39044 ft 548 kts 160°
2026-05-04 23:51 31.93642 -83.44248 39040 ft 547 kts 160°
2026-05-04 23:51 31.85708 -83.39696 39047 ft 546 kts 160°
2026-05-04 23:52 31.79987 -83.36420 39055 ft 546 kts 160°
2026-05-04 23:52 31.73161 -83.32516 39067 ft 545 kts 160°
2026-05-04 23:53 31.66335 -83.28618 39064 ft 546 kts 160°
2026-05-04 23:53 31.59505 -83.24742 38997 ft 545 kts 161°
2026-05-04 23:54 31.52666 -83.20922 39037 ft 544 kts 161°
2026-05-04 23:54 31.45869 -83.17136 39048 ft 545 kts 161°
2026-05-04 23:55 31.39026 -83.13322 39057 ft 544 kts 161°
2026-05-04 23:56 31.28798 -83.07621 39034 ft 541 kts 161°
2026-05-04 23:56 31.22014 -83.03850 39026 ft 539 kts 161°
2026-05-04 23:57 31.15238 -83.00091 39042 ft 539 kts 161°
2026-05-04 23:57 31.08470 -82.96341 39060 ft 538 kts 161°
2026-05-04 23:58 31.01711 -82.92601 39026 ft 537 kts 161°
2026-05-04 23:58 30.94979 -82.88881 39049 ft 535 kts 161°
2026-05-04 23:59 30.88278 -82.85072 39073 ft 540 kts 154°
2026-05-04 23:59 30.82174 -82.79843 39095 ft 548 kts 146°
2026-05-05 00:00 30.76295 -82.74198 39098 ft 548 kts 146°
2026-05-05 00:00 30.70362 -82.68663 39134 ft 545 kts 147°
2026-05-05 00:01 30.64375 -82.63264 39134 ft 544 kts 148°
2026-05-05 00:01 30.58379 -82.57904 39134 ft 544 kts 148°
2026-05-05 00:02 30.52394 -82.52546 39157 ft 543 kts 148°
2026-05-05 00:02 30.46418 -82.47191 39156 ft 543 kts 148°
2026-05-05 00:03 30.40440 -82.41841 39148 ft 543 kts 148°
2026-05-05 00:03 30.34464 -82.36503 39178 ft 542 kts 148°
2026-05-05 00:04 30.28503 -82.31186 39138 ft 540 kts 148°
2026-05-05 00:04 30.22554 -82.25898 39132 ft 536 kts 150°
2026-05-05 00:04 30.19398 -82.23719 39120 ft 522 kts 164°
2026-05-05 00:05 30.15992 -82.22580 39073 ft 498 kts 180°
2026-05-05 00:05 30.09151 -82.21481 39123 ft 496 kts 179°
2026-05-05 00:05 30.05741 -82.20859 38635 ft 500 kts 178°
2026-05-05 00:06 30.02297 -82.20189 37847 ft 500 kts 178°
2026-05-05 00:06 29.98874 -82.19498 37098 ft 498 kts 178°
2026-05-05 00:06 29.95460 -82.18812 36357 ft 497 kts 178°
2026-05-05 00:06 29.92057 -82.18137 35568 ft 497 kts 178°
2026-05-05 00:07 29.88638 -82.17463 34702 ft 500 kts 178°
2026-05-05 00:07 29.85196 -82.16781 33699 ft 504 kts 178°
2026-05-05 00:07 29.81731 -82.16092 32666 ft 507 kts 178°
2026-05-05 00:07 29.78250 -82.15397 31634 ft 509 kts 178°
2026-05-05 00:08 29.74755 -82.14699 30627 ft 510 kts 178°
2026-05-05 00:08 29.71280 -82.14003 29903 ft 504 kts 177°
2026-05-05 00:08 29.67844 -82.13314 29106 ft 498 kts 177°
2026-05-05 00:08 29.64451 -82.12637 28392 ft 491 kts 177°
2026-05-05 00:09 29.61107 -82.11972 27716 ft 485 kts 177°
2026-05-05 00:09 29.57794 -82.11316 27013 ft 480 kts 176°
2026-05-05 00:09 29.54521 -82.10669 26384 ft 475 kts 176°
2026-05-05 00:09 29.51325 -82.10037 25741 ft 471 kts 176°
2026-05-05 00:10 29.48112 -82.09401 25113 ft 467 kts 176°
2026-05-05 00:10 29.44922 -82.08770 24475 ft 463 kts 175°
2026-05-05 00:10 29.41756 -82.08145 23829 ft 461 kts 175°
2026-05-05 00:10 29.38606 -82.07524 23120 ft 458 kts 175°
2026-05-05 00:11 29.35488 -82.06907 22670 ft 449 kts 175°
2026-05-05 00:11 29.32463 -82.06306 22486 ft 434 kts 175°
2026-05-05 00:11 29.29566 -82.05456 22117 ft 431 kts 162°
2026-05-05 00:11 29.26916 -82.03862 21670 ft 428 kts 153°
2026-05-05 00:12 29.24359 -82.02133 21177 ft 425 kts 153°
2026-05-05 00:12 29.21817 -82.00434 20694 ft 422 kts 154°
2026-05-05 00:12 29.19278 -81.98781 20215 ft 418 kts 154°
2026-05-05 00:12 29.16743 -81.97167 19722 ft 415 kts 155°
2026-05-05 00:13 29.14221 -81.95580 19248 ft 413 kts 155°
2026-05-05 00:13 29.11729 -81.94016 19084 ft 401 kts 155°
2026-05-05 00:13 29.09321 -81.92499 19005 ft 391 kts 155°
2026-05-05 00:13 29.06965 -81.90996 18659 ft 383 kts 152°
2026-05-05 00:14 29.04866 -81.89143 17857 ft 381 kts 139°
2026-05-05 00:14 29.03002 -81.87015 16917 ft 377 kts 136°
2026-05-05 00:14 29.01176 -81.84909 16328 ft 367 kts 137°
2026-05-05 00:14 28.99352 -81.82894 16081 ft 362 kts 139°
2026-05-05 00:15 28.97559 -81.80894 15825 ft 362 kts 134°
2026-05-05 00:15 28.95946 -81.78645 15501 ft 369 kts 128°
2026-05-05 00:15 28.94422 -81.76272 15160 ft 371 kts 127°
2026-05-05 00:15 28.92902 -81.73890 14796 ft 370 kts 127°
2026-05-05 00:16 28.91370 -81.71550 14442 ft 368 kts 128°
2026-05-05 00:16 28.89824 -81.69241 14098 ft 363 kts 128°
2026-05-05 00:16 28.88293 -81.66974 13718 ft 358 kts 128°
2026-05-05 00:16 28.86785 -81.64746 13347 ft 352 kts 128°
2026-05-05 00:17 28.85301 -81.62552 12986 ft 348 kts 129°
2026-05-05 00:17 28.83830 -81.60375 12647 ft 346 kts 129°
2026-05-05 00:17 28.82365 -81.58213 12308 ft 342 kts 128°
2026-05-05 00:17 28.80926 -81.56087 11997 ft 336 kts 129°
2026-05-05 00:18 28.79420 -81.54123 11644 ft 324 kts 142°
2026-05-05 00:18 28.77541 -81.52851 11351 ft 309 kts 156°
2026-05-05 00:18 28.75638 -81.51771 11067 ft 303 kts 155°
2026-05-05 00:18 28.73769 -81.50678 10770 ft 301 kts 155°
2026-05-05 00:19 28.71914 -81.49580 10484 ft 301 kts 155°
2026-05-05 00:19 28.70058 -81.48476 10196 ft 300 kts 155°
2026-05-05 00:19 28.68224 -81.47381 9899 ft 295 kts 155°
2026-05-05 00:19 28.66420 -81.46300 9587 ft 290 kts 155°
2026-05-05 00:20 28.64649 -81.45240 9296 ft 285 kts 155°
2026-05-05 00:20 28.62911 -81.44199 9011 ft 279 kts 155°
2026-05-05 00:20 28.61209 -81.43184 8724 ft 271 kts 156°
2026-05-05 00:20 28.59479 -81.42570 8448 ft 253 kts 178°
2026-05-05 00:21 28.57741 -81.42434 8244 ft 250 kts 179°
2026-05-05 00:21 28.56019 -81.42352 7998 ft 245 kts 182°
2026-05-05 00:21 28.54324 -81.42358 7768 ft 243 kts 183°
2026-05-05 00:21 28.52641 -81.42375 7534 ft 241 kts 183°
2026-05-05 00:22 28.50970 -81.42389 7302 ft 240 kts 183°
2026-05-05 00:22 28.49309 -81.42399 7071 ft 239 kts 183°
2026-05-05 00:22 28.47648 -81.42406 6843 ft 237 kts 182°
2026-05-05 00:22 28.46018 -81.42409 6596 ft 231 kts 182°
2026-05-05 00:23 28.44433 -81.42412 6368 ft 226 kts 183°
2026-05-05 00:23 28.42860 -81.42414 6151 ft 227 kts 182°
2026-05-05 00:23 28.41282 -81.42415 5913 ft 227 kts 183°
2026-05-05 00:23 28.39704 -81.42416 5690 ft 227 kts 182°
2026-05-05 00:24 28.38130 -81.42416 5446 ft 226 kts 182°
2026-05-05 00:24 28.36561 -81.42417 5131 ft 225 kts 181°
2026-05-05 00:24 28.35000 -81.42417 4846 ft 224 kts 181°
2026-05-05 00:24 28.33440 -81.42409 4545 ft 224 kts 179°
2026-05-05 00:25 28.31887 -81.42368 4240 ft 221 kts 176°
2026-05-05 00:25 28.30363 -81.42284 3927 ft 217 kts 173°
2026-05-05 00:25 28.28881 -81.42141 3706 ft 211 kts 171°
2026-05-05 00:25 28.27413 -81.41984 3430 ft 213 kts 171°
2026-05-05 00:26 28.25966 -81.41771 3119 ft 203 kts 160°
2026-05-05 00:26 28.24866 -81.40930 3057 ft 191 kts 122°
2026-05-05 00:26 28.24485 -81.39501 3040 ft 194 kts 90°
2026-05-05 00:26 28.24586 -81.37950 3038 ft 200 kts 84°
2026-05-05 00:27 28.24855 -81.36418 3015 ft 197 kts 68°
2026-05-05 00:27 28.25751 -81.35260 3023 ft 201 kts 33°
2026-05-05 00:27 28.27042 -81.34705 3028 ft 196 kts 20°
2026-05-05 00:27 28.28339 -81.34280 2997 ft 194 kts 22°
2026-05-05 00:28 28.29629 -81.33781 2774 ft 195 kts 23°
2026-05-05 00:28 28.30880 -81.33296 2747 ft 187 kts 23°
2026-05-05 00:28 28.32143 -81.32862 2493 ft 191 kts 19°
2026-05-05 00:28 28.33439 -81.32630 2096 ft 187 kts
2026-05-05 00:29 28.34766 -81.32612 1717 ft 191 kts
2026-05-05 00:29 28.36064 -81.32651 1533 ft 185 kts
2026-05-05 00:29 28.37303 -81.32681 1248 ft 169 kts
2026-05-05 00:29 28.38425 -81.32657 903 ft 157 kts
2026-05-05 00:30 28.39481 -81.32662 567 ft 144 kts
2026-05-05 00:30 28.40528 -81.32656 404 ft 155 kts
2026-05-05 00:30 28.41605 -81.32662 163 ft 152 kts
2026-05-05 00:30 28.42607 -81.32674 107 ft 131 kts 359°
2026-05-05 00:31 28.43335 -81.32682 112 ft 77 kts 360°
2026-05-05 00:31 28.43610 -81.32691 108 ft 16 kts 346°
2026-05-05 00:31 28.43668 -81.32789 108 ft 17 kts 274°
2026-05-05 00:31 28.43643 -81.32918 109 ft 18 kts 215°
2026-05-05 00:32 28.43521 -81.32926 110 ft 18 kts 178°
2026-05-05 00:32 28.43397 -81.32922 111 ft 18 kts 179°
2026-05-05 00:32 28.43270 -81.32923 112 ft 18 kts 180°
2026-05-05 00:32 28.43143 -81.32923 112 ft 18 kts 180°
2026-05-05 00:33 28.43006 -81.32922 111 ft 21 kts 179°
2026-05-05 00:33 28.42842 -81.32919 108 ft 26 kts 179°
2026-05-05 00:33 28.42659 -81.32916 108 ft 26 kts 180°
2026-05-05 00:33 28.42476 -81.32916 105 ft 26 kts 180°
2026-05-05 00:34 28.42354 -81.32915 106 ft 26 kts 180°
2026-05-05 00:34 28.42171 -81.32914 108 ft 26 kts 179°
2026-05-05 00:34 28.41987 -81.32911 109 ft 26 kts 179°
2026-05-05 00:34 28.41806 -81.32912 112 ft 26 kts 180°
2026-05-05 00:35 28.41625 -81.32908 111 ft 26 kts 179°
2026-05-05 00:35 28.41495 -81.32957 109 ft 20 kts 221°
2026-05-05 00:35 28.41410 -81.33077 110 ft 21 kts 256°
2026-05-05 00:35 28.41403 -81.33249 109 ft 22 kts 270°
2026-05-05 00:36 28.41449 -81.33390 107 ft 12 kts 342°
2026-05-05 00:36 28.41469 -81.33391 107 ft 0 kts